Location: Musselshell
(46.5176°N, 108.0911°W)
Time: 05:19:15
(UTC+00:00)

YUBILEINY - Pass Details

Date: 30 June 2022
Orbit: 1478 x 1509 km, 82.5° (Epoch: 07 August)

Event Time Altitude Azimuth Distance (km) Brightness Sun altitude
Rises 10:30:49 0° 353° (N) 4,655 ? -7.6°
Reaches altitude 10° 10:34:00 10° 0° (N) 3,667 ? -7.2°
Maximum altitude 10:42:15 42° 69° (ENE) 2,040 ? -6.2°
Drops below altitude 10° 10:50:22 10° 138° (SE) 3,628 ? -5.2°
Sets 10:53:28 0° 145° (SE) 4,600 ? -4.8°
